EHI
0 0 0 0 0 0 0 0 0 0 0 0 0 0 0 0 0 0 0 0 0 0 0 0 0 0 0 0 0 0 0 0 0 0 0 0 0 0 0 0 0 0 0 0
0 0 0 0 0 0 0 0 0 0 0 0 0 0 0 0 0 0 0 0 0 0 0 0 0 0 0 0 0 0 0 0 0 0 0 0 0 0 0 0 0 0 0 0
0 0 0 0 0 0 0 0 0 0 0 0 0 0 0 0 0 0 0 0 0 0 0 0 0 0 0 0 0 0 0 0 0 0 0 0 0 0 0 0 0 0 0 0
0 0 0 0 0 0 0 0 0 0 0 0 0 0 0 0 0 0 0 0 0 0 0 0 0 0 0 0 0 0 0 0 0 0 0 0 0 0 0 0 0 0 0 0
0 0 0 0 0 0 0 0 0 0 0 0 0 0 0 0 0 0 0 0 0 0 0 0 0 0 0 0 0 0 0 0 0 0 0 0 0 0 0 0 0 0 0 0
0 0 0 0 0 0 0 0 0 0 0 0 0 0 0 0 0 0 0 0 0 0 0 0 0 0 0 0 0 0 0 0 0 0 0 0 0 0 0 0 0 0 0 0
0 0 0 0 0 0 0 0 0 0 0 0 0 0 0 0 0 0 0 0 0 0 0 0 0 0 0 0 0 0 0 0 0 0 0 0 0 0 0 0 0 0 0 0
0 0 0 0 0 0 0 0 0 0 0 0 0 0 0 0 0 0 0 0 0 0 0 0 0 0 0 0 0 0 0 0 0 0 0 0 0 0 0 0 0 0 0 0
0 0 0 0 0 0 0 0 0 0 0 0 0 0 0 0 0 0 0 0 0 0 0 0 0 0 0 0 0 0 0 0 0 0 0 0 0 0 0 0 0 0 0 0
0 0 0 0 0 0 0 0 0 0 0 0 0 0 0 0 0 0 0 0 0 0 0 0 0 0 0 0 0 0 0 0 0 0 0 0 0 0 0 0 0 0 0 0
0 0 0 0 0 0 0 0 0 0 0 0 0 0 0 0 0 0 0 0 0 0 0 0 0 0 0 0 0 0 0 0 0 0 0 0 0 0 0 0 0 0 0 0
0 0 0 0 0 0 0 0 0 0 0 0 0 0 0 0 0 0 0 0 0 0 0 0 0 0 0 0 0 0 0 0 0 0 0 0 0 0 0 0 0 0 0 0
0 0 0 0 0 0 0 0 0 0 0 0 0 0 0 0 0 0 0 0 0 0 0 0 0 0 0 0 0 0 0 0 0 0 0 0 0 0 0 0 0 0 0 0
0 0 0 0 0 0 0 0 0 0 0 0 0 0 0 0 0 0 0 0 0 0 0 0 0 0 0 0 0 0 0 0 0 0 0 0 0 0 0 0 0 0 0 0
0 0 0 0 0 0 0 0 0 0 0 0 0 0 0 0 0 0 0 0 0 0 0 0 0 0 0 0 0 0 0 0 0 0 0 0 0 0 0 0 0 0 0 0
0 0 0 0 0 0 0 0 0 0 0 0 0 0 0 0 0 0 0 0 0 0 0 0 0 0 0 0 0 0 0 0 0 0 0 0 0 0 0 0 0 0 0 0
0 0 0 0 0 0 0 0 0 0 0 0 0 0 0 0 0 0 0 0 0 0 0 0 0 0 0 0 0 0 0 0 0 0 0 0 0 0 0 0 0 0 0 0
0 0 0 0 0 0 0 0 0 0 0 0 0 0 0 0 0 0 0 0 0 0 0 0 0 0 0 0 0 0 0 0 0 0 0 0 0 0 0 0 0 0 0 0
0 0 0 0 0 0 0 0 0 0 0 0 0 0 0 0 0 0 0 0 0 0 0 0 0 0 0 0 0 0 0 0 0 0 0 0 0 0 0 0 0 0 0 0
0 0 0 0 0 0 0 0 0 0 0 0 0 0 0 0 0 0 0 0 0 0 0 0 0 0 0 0 0 0 0 0 0 0 0 0 0 0 0 0 0 0 0 0
0 0 0 0 0 0 0 0 0 0 0 0 0 0 0 0 0 0 0 0 0 0 0 0 0 0 0 0 0 0 0 0 0 0 0 0 0 0 0 0 0 0 0 0
0 0 0 0 0 0 0 0 0 0 0 0 0 0 0 0 0 0 0 0 0 0 0 0 0 0 0 0 0 0 0 0 0 0 0 0 0 0 0 0 0 0 0 0
0 0 0 0 0 0 0 0 0 0 0 0 0 0 0 0 0 0 0 0 0 0 0 0 0 0 0 0 0 0 0 0 0 0 0 0 0 0 0 0 0 0 0 0
0 0 0 0 0 0 0 0 0 0 0 0 0 0 0 0 0 0 0 0 0 0 0 0 0 0 0 0 0 0 0 0 0 0 0 0 0 0 0 0 0 0 0 0
0 0 0 0 0 0 0 0 0 0 0 0 0 0 0 0 0 0 0 0 0 0 0 0 0 0 0 0 0 0 0 0 0 0 0 0 0 0 0 0 0 0 0 0
0 0 0 0 0 0 0 0 0 0 0 0 0 0 0 0 0 0 0 0 0 0 0 0 0 0 0 0 0 0 0 0 0 0 0 0 0 0 0 0 0 0 0 0
0 0 0 0 0 0 0 0 0 0 0 0 0 0 0 0 0 0 0 0 0 0 0 0 0 0 0 0 0 0 0 0 0 0 0 0 0 0 0 0 0 0 0 0
Wind_Speed
5 5 3 4 5 5 6 7 8 8 7 9 7 6 4 3 4 3 3 4 5 5 5 5 5 5 5 5 5 4 5 6 7 7 7 7 7 8 8 8 8 8 8 9
2 2 2 3 4 4 4 4 4 3 6 5 2 3 3 5 6 5 6 6 7 6 6 6 6 6 5 5 5 4 5 7 7 7 7 7 8 8 8 8 8 8 8 9
3 4 2 4 4 4 4 4 7 7 7 3 4 6 7 7 7 7 8 7 7 7 7 6 6 6 6 6 5 5 6 7 7 7 8 8 8 8 8 8 8 9 9 9
2 2 3 9 3 4 3 3 5 4 4 6 6 5 4 6 8 8 8 8 7 6 6 5 5 5 5 5 5 5 6 7 7 7 8 8 8 9 8 7 8 8 9 10
4 2 5 7 3 6 5 4 5 6 5 4 3 3 4 7 8 9 9 8 7 6 5 4 5 5 4 5 5 6 7 7 7 7 8 9 9 9 8 7 8 8 8 9
4 4 6 10 4 5 5 5 6 8 8 6 7 2 7 7 9 9 8 6 5 4 4 5 5 3 4 6 6 7 8 8 8 7 8 9 9 9 7 7 8 8 9 8
4 4 9 8 3 7 4 10 7 10 9 10 10 10 6 4 6 8 7 6 5 4 4 6 4 3 5 6 7 8 7 7 8 8 8 9 8 7 8 8 8 8 9 8
4 3 9 4 8 10 11 5 6 10 10 11 11 8 6 5 7 7 6 6 5 5 6 5 4 4 6 7 7 6 6 7 8 8 8 7 7 8 7 7 8 8 7 8
8 9 7 5 8 7 4 5 7 9 10 11 10 9 8 7 8 7 7 6 5 5 6 5 5 5 6 7 6 5 6 8 8 9 8 7 7 8 7 6 6 6 6 6
4 8 7 7 6 5 7 8 8 9 9 10 11 10 9 8 7 7 7 6 5 5 6 6 5 5 7 7 5 5 7 8 7 8 8 8 6 5 6 6 6 6 6 6
5 8 8 7 6 6 5 5 5 6 8 11 11 10 9 8 8 7 7 5 5 6 7 7 5 6 6 5 4 5 7 7 7 7 7 8 7 6 7 7 7 7 6 5
7 7 5 8 6 3 4 6 7 7 7 7 10 10 9 8 8 7 7 5 5 6 7 7 5 6 6 5 4 5 6 7 6 6 6 6 7 8 8 8 10 10 10 8
7 5 4 6 6 3 3 5 4 6 7 7 7 7 7 7 6 6 5 6 7 7 7 6 5 6 6 4 4 5 6 7 6 6 6 6 6 6 8 8 8 8 8 9
6 3 2 4 4 4 2 2 1 1 1 1 2 3 3 3 3 5 7 7 7 6 6 6 6 7 6 4 4 6 6 7 7 6 6 6 6 6 6 7 8 6 5 7
9 5 2 4 7 9 8 7 7 6 5 3 1 1 2 4 5 7 6 5 4 5 6 6 6 8 5 4 4 6 5 5 5 6 6 6 6 6 6 6 6 6 6 5
6 9 10 12 13 12 12 11 8 7 5 4 3 2 2 3 4 5 5 4 5 7 7 6 8 7 4 4 4 5 5 8 8 5 6 6 5 5 6 6 6 6 5 5
12 12 11 11 11 11 10 8 7 6 5 5 4 3 2 3 4 6 6 6 7 7 6 7 7 5 4 4 5 4 4 6 8 6 5 5 5 5 5 5 5 5 5 5
7 6 6 6 6 7 9 9 8 7 6 5 4 3 3 4 6 7 6 4 4 6 7 7 6 5 5 5 4 4 4 4 4 5 5 5 5 5 5 5 6 6 5 5
8 7 7 8 7 6 6 6 6 6 6 5 4 4 4 5 6 6 5 4 5 8 8 6 7 6 6 5 5 3 4 5 5 4 5 6 5 4 4 4 5 5 5 4
8 7 8 8 8 6 6 6 7 6 6 5 4 5 6 6 6 6 5 5 7 7 6 4 5 5 5 4 4 3 4 4 4 4 4 4 5 5 4 4 4 5 4 4
6 7 7 7 7 6 6 6 5 6 6 5 4 4 6 7 6 5 4 6 8 6 5 6 4 4 4 3 3 3 3 4 4 4 4 4 4 5 4 4 4 4 4 4
5 5 6 6 6 6 6 5 5 5 6 6 6 5 6 7 8 7 6 6 7 6 4 3 3 4 4 4 2 3 3 3 3 3 3 4 4 4 4 4 4 4 4 4
5 5 6 6 5 6 6 5 5 5 5 5 6 6 6 6 5 5 8 7 6 6 4 4 4 6 5 3 2 3 3 3 3 3 3 4 4 4 4 4 4 4 4 3
5 6 6 5 4 4 5 5 5 4 4 5 5 6 5 6 6 5 6 8 9 8 4 4 6 5 3 2 2 2 2 2 2 2 3 3 3 3 3 3 3 3 3 4
6 5 5 5 4 4 4 5 5 5 5 5 7 7 5 4 5 7 7 7 8 7 4 3 4 4 2 2 2 2 1 1 1 2 2 3 3 3 3 3 3 3 3 3
5 5 5 5 5 4 4 3 3 4 4 5 6 6 6 6 6 6 6 6 7 6 4 2 1 2 2 2 1 1 1 1 1 2 2 3 3 3 3 4 4 4 3 4
6 5 4 4 4 4 4 3 4 4 4 4 6 6 6 7 6 6 6 6 5 4 2 1 1 1 1 1 1 1 1 1 1 2 2 3 3 3 4 4 4 4 4 4
Wind_Direction
233 247 242 246 245 190 188 186 184 224 224 240 222 214 213 188 172 182 212 233 241 249 261 271 277 279 278 279 282 285 289 288 283 284 284 283 282 282 281 279 279 275 276 276
285 288 277 260 253 198 192 185 201 218 249 248 204 150 170 183 186 208 230 241 249 255 261 265 267 271 275 276 280 286 284 283 285 288 289 286 284 284 285 284 282 280 277 277
260 310 11 277 242 204 202 194 171 199 232 182 171 194 204 202 203 216 230 240 246 250 252 257 260 259 262 268 281 285 282 284 287 289 290 288 289 291 288 286 285 285 282 278
157 59 241 250 268 194 178 212 204 213 214 191 199 209 219 201 202 221 233 240 245 247 253 258 259 260 264 273 279 282 284 286 288 290 291 292 291 288 286 285 285 285 284 282
132 176 277 291 233 163 157 242 211 195 200 179 106 54 301 225 209 217 225 229 234 237 241 256 264 264 273 280 282 284 284 285 287 289 292 295 293 290 288 287 288 286 284 284
136 160 228 250 230 154 105 278 226 188 190 162 125 154 258 234 209 223 232 233 235 241 243 255 261 261 265 275 281 280 280 283 286 287 289 291 289 288 286 284 285 288 286 283
162 202 254 251 160 128 165 242 211 189 186 167 181 203 225 219 205 214 221 226 228 231 240 249 256 249 257 269 271 271 278 285 289 288 287 285 283 283 287 288 289 287 287 287
147 183 258 217 145 181 213 221 182 187 186 186 209 225 236 228 219 216 218 226 221 223 244 254 249 235 255 264 266 277 283 288 291 291 290 291 289 291 289 287 290 291 292 296
187 214 240 212 208 224 188 195 197 191 195 192 205 222 224 224 223 219 218 223 218 218 244 261 250 229 249 262 274 284 289 291 293 296 294 288 287 292 297 293 287 289 290 293
255 271 263 252 246 238 208 211 208 195 188 182 198 212 214 218 217 217 222 223 216 215 237 256 255 242 243 263 275 278 285 292 296 300 302 301 293 286 287 290 291 290 288 289
266 280 302 294 252 236 227 227 215 203 194 194 199 210 207 209 211 214 219 219 208 214 232 248 258 261 261 262 264 274 284 291 297 297 298 303 301 289 283 275 265 270 279 278
237 247 229 261 274 254 216 221 211 201 211 210 202 210 203 206 208 207 213 212 215 225 236 250 256 263 268 262 251 266 285 294 297 300 302 302 305 307 289 274 279 267 256 256
250 273 243 272 315 308 240 236 214 199 206 213 214 205 198 206 207 203 209 212 221 229 236 246 253 262 265 258 249 257 271 285 293 296 299 302 303 304 310 312 299 281 270 267
301 301 342 339 327 339 352 354 47 31 309 230 203 185 188 200 201 212 219 220 222 228 237 242 251 260 262 251 250 263 272 281 286 288 292 295 296 298 297 301 308 309 295 282
10 35 36 4 23 25 26 39 44 26 13 8 26 162 188 200 218 233 233 223 220 232 242 243 251 261 260 243 251 267 277 282 285 288 289 291 293 295 297 298 297 298 304 304
21 40 41 40 35 29 29 31 29 12 9 7 2 324 250 232 240 249 241 212 212 233 239 239 247 254 247 239 254 268 274 285 294 292 295 299 300 302 306 307 306 305 304 304
47 32 23 25 23 24 23 20 20 12 13 10 340 308 278 261 262 260 252 233 228 239 240 237 247 251 237 236 245 261 276 290 301 301 295 296 299 302 304 306 306 308 303 294
59 50 39 32 21 19 16 12 9 5 356 336 327 319 301 278 270 273 278 277 265 263 253 242 240 238 235 237 242 254 269 281 289 294 297 300 301 300 303 307 311 313 313 315
36 31 27 23 13 11 7 358 350 344 339 342 341 324 301 289 284 285 283 267 260 266 264 243 233 229 235 239 241 246 263 279 289 294 295 301 306 308 311 313 314 314 313 317
23 17 16 11 5 1 352 343 341 339 336 340 341 338 328 315 308 302 291 269 254 250 252 244 230 228 231 237 243 243 258 274 286 296 302 307 310 312 314 314 317 317 318 323
4 359 358 354 345 340 336 332 330 327 326 335 337 324 313 309 311 308 299 291 283 269 260 244 230 225 219 221 236 241 256 272 282 292 301 306 308 311 314 319 324 323 322 327
341 340 337 334 333 326 323 324 325 326 332 336 334 329 326 321 319 312 288 268 281 285 274 251 239 227 217 214 221 238 253 268 279 289 298 304 307 310 316 323 326 326 325 329
321 317 317 317 313 305 314 326 335 333 331 329 326 322 315 303 298 298 302 299 302 293 280 254 237 226 218 208 219 239 253 267 281 296 302 303 307 311 318 324 326 330 332 335
308 307 303 301 307 321 326 320 322 316 312 308 304 304 303 308 309 294 281 294 298 292 279 256 237 224 201 200 223 238 254 271 289 301 308 313 320 326 331 333 336 341 343 346
292 292 295 305 308 296 288 299 311 312 318 314 310 309 304 286 283 297 301 301 301 297 292 266 237 218 198 200 214 227 240 268 301 308 318 329 335 338 338 342 344 346 349 350
286 284 279 271 263 264 271 279 283 287 293 301 303 303 308 307 302 302 303 304 303 298 289 278 242 214 209 205 202 209 239 317 337 347 348 342 345 351 348 350 354 356 357 354
285 281 280 286 280 265 260 258 262 271 271 273 284 292 301 306 309 312 316 318 316 310 302 290 237 198 175 144 114 91 63 33 14 5 360 355 352 354 354 357 357 357 358 2